Location: Croydon
(51.3762°N, 0.0982°W)
Time: 21:06:39
(UTC+00:00)

Altair - Pass Details

Date: 16 November 2019
Orbit: 1502 x 1682 km, 47.2° (Epoch: 14 December)

Event Time Altitude Azimuth Distance (km) Brightness Sun altitude
Rises 07:18:35 0° 271° (W) 4,639 9.5 -0.9°
Reaches altitude 10° 07:21:35 10° 268° (W) 3,665 9.0 -0.5°
Maximum altitude 07:30:42 67° 189° (S) 1,638 7.9 0.7°
Drops below altitude 10° 07:40:05 10° 109° (ESE) 3,768 11.4 2.0°
Sets 07:43:13 0° 107° (ESE) 4,777 11.9 2.4°
